Hourly Data Report for February 27, 2015

All times are specified in Local Standard Time (LST). Add 1 hour to adjust for Daylight Saving Time where and when it is observed.

Metadata including Station Name, Province, Latitude, Longitude, Elevation, Climate ID, WMO ID, TC ID
GRANBY
QUEBEC
Latitude: 45°22'22.000" N Longitude: 72°46'26.000" W Elevation: 86.00 m
Climate ID: 7022802 WMO ID: TC ID: MGB
Hourly Data Report for February 27, 2015
Temp Definition
°C

Dew Point Temp Definition
°C

Rel Hum Definition
%

Wind Dir Definition
10's deg
Wind Spd Definition
km/h

Visibility Definition
km

Stn Press Definition
kPa

Hmdx Definition

Wind Chill Definition

Weather Definition

00:00 -22.7 -26.0 75 35 1 101.19 -24 LegendNANA
01:00 -22.1 -25.4 75 20 4 101.22 -26 LegendNANA
02:00 -22.1 -26.4 68 20 2 101.26 -24 LegendNANA
03:00 -21.9 -26.0 70 19 5 101.30 -26 LegendNANA
04:00 -22.0 -26.4 67 20 3 101.36 -25 LegendNANA
05:00 -22.4 -25.8 74 21 3 101.45 -25 LegendNANA
06:00 -22.9 -26.4 73 20 4 101.53 -27 LegendNANA
07:00 -25.3 -28.8 73 20 3 101.60 -28 LegendNANA
08:00 LegendMM -23.2 68 21 5 101.72 LegendNANA
09:00 -16.9 -24.8 50 21 8 101.76 -23 LegendNANA
10:00 -15.8 -24.4 47 22 9 101.82 -22 LegendNANA
11:00 -14.1 -23.6 45 21 8 101.85 -19 LegendNANA
12:00 -12.9 -22.8 43 21 9 101.86 -18 LegendNANA
13:00 -11.6 -22.1 41 23 11 101.83 -18 LegendNANA
14:00 -11.1 -21.8 41 24 14 101.81 -18 LegendNANA
15:00 -11.1 -22.0 40 25 18 101.83 -19 LegendNANA
16:00 -11.1 -22.1 40 25 15 101.86 -18 LegendNANA
17:00 -11.5 -22.2 41 24 11 101.89 -17 LegendNANA
18:00 -12.5 -22.4 44 26 11 101.92 -19 LegendNANA
19:00 -12.7 -22.4 44 25 11 101.99 -19 LegendNANA
20:00 -14.5 -22.3 52 20 5 102.06 -18 LegendNANA
21:00 -15.9 -22.3 58 21 5 102.17 -20 LegendNANA
22:00 -17.0 -23.3 58 19 5 102.25 -21 LegendNANA
23:00 -16.6 -23.2 57 21 5 102.29 -20 LegendNANA

Notes on Data Quality.

Legend
  • E = Estimated
  • M = Missing
  • NA = Not Available
  • ‡ = Partner data that is not subject to review by the National Climate Archives